[[{"header":{"parameterUnit":"m.s-1","parameterCategory":1,"la1":30.2991,"la2":30.254,"lo1":-89.0895,"lo2":-89.0444,"dy":0.0017,"dx":0.0017,"nx":28,"ny":28,"refTime":"2026-02-04T03:00:00:Z","depth":0,"parameterNumber":2,"parameterNumberName":"U-component_of_WINDS"},"data":[0,0,0,0,0,0,0,0,0,0,0,0,0,0,0,0,0,0,0,0,0,0,0,0,0,0,0,0,0,0,0,0,0,0,0,0,0,0,0,0,0,0,0,0,0,0,0,0,0,0,0,0,0,0,0,0,0,0,0.3854,0.3854,0,0.3896,0.3897,0.3897,0.3883,0.3882,0.3881,0.3881,0.3929,0.3931,0.3933,0,0,0,0,0,0,0,0,0,0,0,0,0,0.3764,0.3765,0.3854,0.3854,0.3855,0.3896,0.3897,0.3897,0.3884,0.3882,0.3881,0.388,0.3928,0.3931,0.3933,0,0,0,0,0,0,0,0,0,0,0,0,0,0.3804,0.3766,0.3853,0.3853,0.3853,0.3896,0.3897,0.3898,0.3884,0.3882,0.3881,0.388,0.3927,0.393,0.3933,0.3981,0,0,0.3943,0.3945,0,0,0,0,0,0,0,0,0.3802,0.3808,0.3852,0.3853,0.3853,0.3883,0.3883,0.3926,0.3884,0.3872,0.3881,0.3879,0.3915,0.3919,0.393,0.3984,0.3986,0.3944,0.3946,0.3947,0.3948,0,0,0,0,0,0,0,0.3799,0.3806,0.3871,0.3853,0.3853,0.3851,0.3855,0.3891,0.3901,0.3873,0.3872,0.3877,0.3915,0.3927,0.3931,0.3986,0.3944,0.3946,0.3948,0.395,0.4081,0.4083,0,0,0,0,0,0,0.3796,0.3803,0.3869,0.3872,0.3823,0.3854,0.3859,0.3875,0.3901,0.3903,0.3878,0.3876,0.3922,0.3928,0.3933,0.3991,0.3947,0.395,0.3952,0.408,0.4082,0.4083,0,0,0,0,0,0,0.3794,0.3801,0.3867,0.3837,0.3846,0.3857,0.3875,0.3876,0.3889,0.3904,0.3907,0.3889,0.3921,0.3928,0.3969,0.3992,0.3951,0.3954,0.4078,0.408,0.4083,0.4107,0,0,0,0,0,0,0.3791,0.3801,0.3818,0.3838,0.3847,0.3902,0.3877,0.3878,0.3894,0.3892,0.3915,0.3917,0.3921,0.3964,0.3972,0.3996,0.3957,0.4076,0.4079,0.4082,0.4104,0.411,0.4115,0,0,0,0,0,0.3788,0.3825,0.3819,0.3827,0.3869,0.3903,0.3909,0.3911,0.3896,0.3914,0.3924,0.3917,0.3988,0.3969,0.3978,0.4003,0.4075,0.4078,0.4082,0.4102,0.4109,0.4115,0,0,0,0,0,0,0.3809,0.3827,0.3822,0.3865,0.3883,0.3901,0.3924,0.3918,0.3941,0.3939,0.3942,0.3947,0.3989,0.4,0.3978,0.405,0.4029,0.4035,0.4042,0.4049,0.4054,0.4051,0.396,0,0,0,0,0,0.3819,0.3844,0.3858,0.3896,0.3904,0.3913,0.3928,0.3928,0.3946,0.3954,0.3967,0.3987,0.4014,0.4032,0.4057,0.4105,0.4111,0.4127,0.4132,0.4137,0.4142,0.4168,0.4176,0.4095,0.4095,0.4095,0,0,0.3839,0.3852,0.3868,0.39,0.3914,0.3941,0.3919,0.3949,0.3969,0.3959,0.3998,0.4008,0.403,0.4075,0.4095,0.4086,0.4165,0.4141,0.4144,0.4147,0.4173,0.418,0.4187,0.4097,0.4097,0.4097,0,0,0.389,0.3902,0.3934,0.3948,0.3968,0.3973,0.3981,0.4,0.4006,0.4044,0.4037,0.4062,0.4109,0.4125,0.4139,0.4195,0.419,0.4203,0.4232,0.4258,0.4264,0.427,0.429,0.4298,0.4208,0.4208,0.4208,0,0.3914,0.3953,0.3952,0.3982,0.3997,0.3987,0.402,0.4034,0.4062,0.4073,0.4061,0.4119,0.4133,0.4181,0.4195,0.4206,0.4216,0.4201,0.4263,0.4269,0.4274,0.4294,0.4301,0.421,0.421,0.421,0.4209,0,0.3981,0.4008,0.4032,0.4057,0.4075,0.4106,0.4112,0.4129,0.4128,0.4134,0.4174,0.4191,0.422,0.4231,0.423,0.4279,0.4273,0.4262,0.4241,0.4283,0.4302,0.431,0.4212,0.4212,0.4211,0.4211,0,0,0.4047,0.4071,0.408,0.4092,0.4113,0.4135,0.4166,0.4193,0.4208,0.4228,0.4255,0.4294,0.4283,0.43,0.43,0.4323,0.4367,0.4309,0.431,0.432,0.4423,0.4432,0.4441,0.4363,0.4365,0.4366,0.4422,0,0.4101,0.4154,0.4154,0.4204,0.423,0.4221,0.4248,0.4265,0.4272,0.4296,0.4304,0.4331,0.4315,0.4325,0.4347,0.4357,0.4388,0.4353,0.439,0.4391,0.4385,0.445,0.446,0.4512,0.4429,0.443,0.4431,0,0.417,0.419,0.4242,0.426,0.427,0.4295,0.4319,0.4341,0.436,0.4364,0.4381,0.4379,0.4412,0.4389,0.4435,0.4411,0.4426,0.4433,0.4436,0.444,0.4414,0.4457,0.4528,0.4537,0.4443,0.4442,0.4441,0,0.4214,0.4255,0.4291,0.4301,0.4322,0.4339,0.4349,0.4366,0.4382,0.4404,0.4415,0.444,0.4455,0.4475,0.448,0.4463,0.4527,0.4504,0.4532,0.4532,0.4546,0.4546,0.4622,0.4555,0.4554,0.4554,0.4554,0,0.4274,0.4307,0.4311,0.4334,0.437,0.437,0.4406,0.4415,0.443,0.4455,0.4449,0.4473,0.4477,0.4502,0.4506,0.4544,0.4551,0.4555,0.4556,0.4556,0.4556,0.4567,0.4564,0.4556,0.4556,0.4555,0.4555,0,0.433,0.4334,0.4373,0.4389,0.4394,0.442,0.4434,0.4457,0.4462,0.4494,0.4501,0.4511,0.454,0.4546,0.4582,0.4584,0.463,0.4626,0.4623,0.4623,0.465,0.4648,0.4737,0.4749,0.4673,0.4674,0.4674,0,0.4368,0.4393,0.4411,0.4426,0.4437,0.4462,0.4478,0.4479,0.4496,0.4519,0.4539,0.4567,0.4589,0.4636,0.4647,0.4674,0.4672,0.4702,0.4676,0.4676,0.4674,0.4672,0.4675,0.4707,0.4708,0.4708,0.4709,0,0.4436,0.4437,0.4459,0.4482,0.4501,0.452,0.4537,0.4551,0.4555,0.4574,0.4603,0.462,0.4655,0.4684,0.471,0.4722,0.4717,0.4716,0.4724,0.4725,0.4722,0.4725,0.4637,0.4715,0.4714,0.4714,0.4713,0.4713,0.4485,0.4506,0.4522,0.4547,0.4561,0.4577,0.4599,0.4607,0.463,0.4658,0.4657,0.4689,0.4708,0.4743,0.4755,0.4781,0.4772,0.4784,0.4787,0.479,0.4792,0.4717,0.4786,0.4786,0.4786,0.4786,0.4785,0,0.4553,0.4562,0.4585,0.461,0.463,0.4621,0.464,0.4658,0.4686,0.4703,0.4725,0.4758,0.4785,0.4798,0.4825,0.4843,0.4842,0.4851,0.485,0.4853,0.4798,0.4789,0.4852,0.4852,0.4852,0.4852,0.4852,0.4852,0.4591,0.4626,0.4629,0.4671,0.4681,0.4711,0.4723,0.4739,0.4752,0.4789,0.4811,0.4819,0.4834,0.4863,0.4888,0.4891,0.4901,0.4912,0.4914,0.4863,0.4857,0.485,0.4841,0.4914,0.4914,0.4966,0.4966,0.4967]},{"header":{"parameterUnit":"m.s-1","parameterCategory":1,"la1":30.2991,"la2":30.254,"lo1":-89.0895,"lo2":-89.0444,"dy":0.0017,"dx":0.0017,"nx":28,"ny":28,"refTime":"2026-02-04T03:00:00:Z","depth":0,"parameterNumber":3,"parameterNumberName":"V-component_of_WINDS"},"data":[0,0,0,0,0,0,0,0,0,0,0,0,0,0,0,0,0,0,0,0,0,0,0,0,0,0,0,0,0,0,0,0,0,0,0,0,0,0,0,0,0,0,0,0,0,0,0,0,0,0,0,0,0,0,0,0,0,0,3.2241,3.2242,0,3.2326,3.2327,3.2328,3.2322,3.232,3.2319,3.2318,3.2403,3.2406,3.2409,0,0,0,0,0,0,0,0,0,0,0,0,0,3.2072,3.2075,3.2241,3.2242,3.2243,3.2326,3.2327,3.2328,3.2322,3.232,3.2319,3.2317,3.2401,3.2405,3.241,0,0,0,0,0,0,0,0,0,0,0,0,0,3.215,3.2076,3.2241,3.225,3.2252,3.2325,3.2327,3.2328,3.2322,3.232,3.2318,3.2317,3.24,3.2405,3.241,3.2479,0,0,3.2426,3.2428,0,0,0,0,0,0,0,0,3.2145,3.2156,3.2248,3.225,3.2252,3.2311,3.2298,3.2379,3.2323,3.2295,3.2318,3.2316,3.2374,3.2381,3.2401,3.2483,3.2487,3.2426,3.2429,3.2432,3.2433,0,0,0,0,0,0,0,3.214,3.2152,3.2275,3.2249,3.2252,3.2249,3.2258,3.2313,3.2344,3.2298,3.2297,3.2308,3.2374,3.2396,3.2403,3.2488,3.2426,3.2431,3.2434,3.2436,3.2631,3.2633,0,0,0,0,0,0,3.2133,3.2148,3.2272,3.2277,3.2193,3.2254,3.2264,3.2294,3.2343,3.2349,3.2309,3.2307,3.2388,3.2397,3.2406,3.249,3.2432,3.2436,3.2439,3.2629,3.2632,3.2634,0,0,0,0,0,0,3.2129,3.2144,3.2268,3.2212,3.2228,3.2259,3.2293,3.2297,3.2318,3.2352,3.2357,3.2326,3.2387,3.2398,3.2461,3.2493,3.2439,3.2443,3.2627,3.263,3.2633,3.266,0,0,0,0,0,0,3.2124,3.2143,3.217,3.2213,3.2231,3.2324,3.2295,3.23,3.2327,3.2325,3.2369,3.2374,3.2386,3.2453,3.2466,3.2499,3.2447,3.2624,3.2628,3.2632,3.2656,3.2663,3.2669,0,0,0,0,0,3.2118,3.2174,3.2171,3.2186,3.2266,3.2325,3.2336,3.2349,3.233,3.2357,3.2379,3.2373,3.2487,3.246,3.2474,3.2509,3.2622,3.2627,3.2631,3.2653,3.2662,3.2669,0,0,0,0,0,0,3.2133,3.218,3.2178,3.2249,3.2283,3.2324,3.2359,3.2358,3.2398,3.2394,3.2408,3.2418,3.2481,3.2501,3.247,3.2578,3.2552,3.256,3.2563,3.2572,3.2579,3.2573,3.2452,0,0,0,0,0,3.2145,3.219,3.2227,3.2287,3.2304,3.2329,3.2355,3.2362,3.2398,3.2412,3.2439,3.2473,3.2517,3.2545,3.2587,3.2658,3.2668,3.2689,3.2696,3.2701,3.2708,3.2747,3.2757,3.2649,3.2649,3.2649,0,0,3.2169,3.22,3.2228,3.229,3.2318,3.2364,3.2341,3.239,3.2424,3.242,3.2481,3.2501,3.254,3.2608,3.2639,3.2626,3.274,3.2707,3.2711,3.2715,3.2753,3.2763,3.2772,3.2653,3.2652,3.2652,0,0,3.2237,3.2265,3.2318,3.2346,3.2388,3.2404,3.2416,3.2457,3.2471,3.2532,3.253,3.257,3.2644,3.2673,3.2697,3.2774,3.2771,3.2787,3.2823,3.2861,3.287,3.2877,3.2906,3.2916,3.2794,3.2794,3.2794,0,3.2263,3.2332,3.2345,3.2395,3.2422,3.242,3.2473,3.2499,3.2553,3.2571,3.2557,3.265,3.2677,3.2751,3.2769,3.2789,3.2803,3.2783,3.2867,3.2875,3.2882,3.291,3.292,3.2796,3.2796,3.2795,3.2795,0,3.2361,3.2409,3.2446,3.2499,3.253,3.2581,3.2601,3.2631,3.2635,3.2652,3.2714,3.2745,3.2793,3.2811,3.2815,3.2885,3.2877,3.2864,3.2839,3.2894,3.292,3.2931,3.2798,3.2798,3.2797,3.2797,0,0,3.2443,3.2501,3.2515,3.2538,3.2584,3.2621,3.2671,3.2719,3.2745,3.2781,3.2823,3.2886,3.2875,3.2902,3.2909,3.2942,3.3002,3.2926,3.2927,3.294,3.3082,3.3092,3.3104,3.2999,3.3001,3.3003,3.3079,0,3.2517,3.2608,3.262,3.27,3.2744,3.2742,3.2786,3.2818,3.2835,3.2874,3.2892,3.2937,3.2918,3.2935,3.2967,3.2988,3.3031,3.2982,3.3039,3.3041,3.3031,3.3118,3.3128,3.3199,3.3089,3.3091,3.3092,0,3.2616,3.2656,3.274,3.2779,3.2798,3.2838,3.2882,3.292,3.2956,3.2966,3.2996,3.2998,3.3049,3.302,3.3091,3.3057,3.3081,3.3094,3.3097,3.3104,3.3071,3.3128,3.3222,3.3233,3.3108,3.3107,3.3106,0,3.2669,3.2743,3.2803,3.2823,3.287,3.2898,3.2918,3.2952,3.298,3.3018,3.3036,3.308,3.3104,3.3137,3.3151,3.3128,3.3221,3.3192,3.323,3.323,3.3252,3.325,3.3352,3.3264,3.3264,3.3264,3.3264,0,3.2751,3.2803,3.2827,3.2865,3.2923,3.2935,3.2992,3.3011,3.3041,3.3082,3.3081,3.3119,3.3134,3.3174,3.3185,3.3242,3.3252,3.3261,3.3264,3.3263,3.3262,3.3279,3.3275,3.3267,3.3266,3.3265,3.3265,0,3.282,3.2839,3.2904,3.2943,3.2954,3.2995,3.3028,3.3063,3.3079,3.313,3.3143,3.3167,3.3214,3.323,3.3287,3.3294,3.3361,3.3359,3.3349,3.335,3.3388,3.3385,3.3506,3.3523,3.3422,3.3423,3.3424,0,3.2872,3.2913,3.2955,3.2983,3.3005,3.3049,3.3077,3.309,3.3119,3.3163,3.3193,3.3239,3.3278,3.3352,3.3375,3.3418,3.3418,3.3457,3.3424,3.3421,3.342,3.3418,3.3422,3.3464,3.3465,3.3465,3.3466,0,3.2963,3.297,3.3011,3.3056,3.309,3.3125,3.3159,3.3181,3.3199,3.3232,3.328,3.331,3.3368,3.3414,3.3458,3.3478,3.3476,3.3476,3.3487,3.3487,3.3481,3.3486,3.3368,3.3474,3.3473,3.3472,3.3472,3.3472,3.3027,3.3062,3.3098,3.3144,3.3171,3.3203,3.3238,3.3258,3.3299,3.3347,3.3352,3.3404,3.3438,3.3497,3.3519,3.3559,3.3548,3.3564,3.3569,3.3573,3.3576,3.3473,3.3567,3.3567,3.3566,3.3566,3.3566,0,3.3118,3.3141,3.3183,3.3231,3.3267,3.3261,3.3298,3.3328,3.3374,3.3406,3.3444,3.3499,3.3543,3.3569,3.3613,3.3641,3.3641,3.3652,3.3651,3.3656,3.3583,3.3569,3.3652,3.3652,3.3652,3.3651,3.3651,3.3651,3.3171,3.3231,3.3242,3.3315,3.3336,3.3388,3.341,3.3439,3.3465,3.3527,3.3564,3.358,3.3609,3.3656,3.3696,3.3702,3.3719,3.3732,3.3738,3.367,3.3661,3.3653,3.364,3.3736,3.3736,3.3807,3.3808,3.3808]}]]